Theta_e
336 333 319 314 300 300 299 311 322 318 321 328 330 328 325 331 326 318 344 350 357 358 362 365 365 366 364 363 361 360 361 361 361 362 362 363 364 363 361 361 361 361 359 359 358 357 357 358 359
320 318 314 307 296 292 295 316 314 319 325 330 330 333 332 330 340 341 342 352 357 359 361 362 366 365 364 363 362 361 361 361 361 361 361 362 363 364 362 360 360 359 358 357 356 355 356 357 358
320 316 306 299 293 293 298 315 320 323 327 327 320 325 333 333 341 341 347 352 355 355 360 362 365 364 364 363 362 361 362 361 361 361 361 362 362 362 361 360 359 358 356 356 355 355 356 357 358
312 307 304 295 294 299 311 320 323 324 326 328 324 323 336 346 343 344 349 351 351 352 358 364 365 364 363 363 362 362 362 362 362 361 361 361 361 361 359 358 357 357 356 355 355 356 356 356 357
308 302 296 293 295 302 317 322 321 320 323 325 324 323 333 344 346 346 347 348 348 351 355 360 364 364 364 363 363 362 362 361 362 362 362 361 361 360 359 358 357 356 356 355 354 357 355 355 355
303 300 292 291 296 302 313 322 321 321 323 322 324 335 335 343 344 346 346 343 348 350 353 357 363 364 363 363 363 362 361 361 361 361 361 361 360 359 359 358 356 356 355 354 354 354 353 353 352
300 297 293 294 297 300 307 323 319 321 322 327 339 333 336 340 346 346 343 342 346 349 351 353 356 359 362 362 361 361 361 360 360 359 359 359 359 359 359 358 358 357 356 356 355 355 355 354 353
304 298 292 295 297 299 306 308 324 322 322 339 344 330 332 340 346 344 341 342 342 346 349 351 353 354 354 356 360 360 360 360 359 359 359 359 359 359 359 357 358 360 359 359 358 358 358 357 356
305 295 291 295 299 300 306 303 314 327 326 330 332 340 343 345 345 342 340 340 341 341 342 348 348 348 349 352 354 358 357 357 358 358 358 355 351 353 355 357 358 359 360 360 359 358 357 357 357
300 294 297 302 304 304 304 304 304 317 323 324 335 343 344 345 343 341 339 338 338 340 342 345 345 345 347 350 350 350 351 351 350 350 350 347 346 347 350 354 358 358 358 358 358 357 357 356 350
298 298 303 306 307 309 306 308 305 311 313 330 333 337 342 343 343 342 342 341 341 342 342 343 344 345 345 346 347 347 349 348 348 351 343 338 336 332 344 346 346 346 354 350 350 349 350 349 348
296 303 303 306 308 308 307 308 306 309 317 331 339 339 341 342 342 343 342 343 343 343 343 346 346 347 347 347 349 348 349 351 339 326 327 328 327 326 326 326 325 325 325 325 324 326 326 328 331
296 301 305 306 307 305 309 310 304 305 319 336 340 338 337 338 339 345 345 346 346 345 346 348 349 347 350 348 337 339 340 331 325 324 326 326 323 322 322 323 323 323 324 323 322 322 323 324 325
299 301 304 306 304 307 306 307 303 305 323 330 335 335 335 334 333 334 344 345 346 339 340 337 336 330 335 322 324 323 325 325 324 324 326 326 321 319 320 320 323 321 321 321 321 321 322 322 324
299 296 300 303 302 303 308 304 302 306 318 323 327 328 328 328 330 339 344 345 336 331 329 327 326 326 322 322 321 321 326 322 321 322 322 322 321 319 319 319 321 320 319 320 321 322 323 322 324
294 292 290 298 302 304 304 301 311 310 315 321 320 323 323 322 333 343 346 339 330 327 324 327 329 325 322 323 321 324 323 321 321 321 320 324 321 319 318 317 319 320 318 320 322 321 321 320 320
290 288 289 295 302 303 302 297 306 307 318 319 319 320 320 316 331 339 337 333 329 327 323 327 325 322 324 322 322 323 322 322 323 320 319 320 322 320 316 317 318 319 318 319 320 318 319 318 319
286 287 289 292 298 300 300 297 301 306 313 316 317 316 315 318 327 333 332 330 327 324 324 325 322 324 323 323 320 322 319 320 321 318 318 319 320 320 317 316 316 318 316 316 316 316 317 318 317
292 291 291 295 299 298 298 297 301 303 304 307 307 313 313 315 320 329 328 327 324 321 323 322 323 322 325 320 318 318 317 318 317 317 319 318 319 318 316 315 315 317 315 314 317 317 316 315 318
292 290 291 294 298 297 297 298 302 303 303 303 309 307 308 307 319 325 324 323 322 321 322 322 323 322 324 321 320 318 318 318 317 317 318 318 318 317 317 314 315 315 314 314 315 314 313 314 316
292 290 291 291 296 295 295 293 299 303 306 309 307 311 310 309 316 322 321 321 321 321 321 322 324 323 324 321 323 320 319 318 317 315 316 317 318 318 316 316 314 314 314 313 313 315 315 312 314
291 296 296 295 291 287 294 286 291 299 304 305 308 306 311 308 314 320 321 320 319 321 323 323 324 322 323 324 321 319 316 314 314 316 318 317 318 317 318 316 315 313 314 313 313 318 313 312 310
295 299 297 295 290 287 289 285 289 293 296 302 305 305 308 310 312 315 319 320 320 321 323 323 324 323 324 325 320 317 313 314 318 317 318 315 315 316 318 317 315 314 314 314 314 314 312 313 312
300 296 293 290 288 282 289 287 286 289 296 298 301 305 306 308 311 313 319 320 320 321 323 323 324 323 324 325 320 317 316 318 316 315 314 314 314 316 319 318 315 314 314 315 314 314 314 313 311
295 288 282 281 281 282 289 287 287 295 298 300 301 303 306 307 309 311 315 318 319 320 322 324 323 323 324 326 323 319 317 319 316 315 315 314 314 312 314 313 314 313 314 315 314 312 312 312 312
293 290 283 279 279 285 291 286 293 298 300 301 303 305 306 305 306 310 315 318 319 320 321 324 323 322 323 326 324 321 319 319 317 317 316 316 314 314 314 314 313 313 315 315 314 313 314 313 313
294 289 293 286 285 283 286 292 297 299 300 302 303 303 304 302 304 309 314 318 320 320 321 323 324 323 322 323 323 323 322 320 319 319 318 316 315 316 315 315 313 313 313 313 313 312 312 313 312
294 296 289 285 279 278 284 287 291 295 298 301 301 301 302 303 303 305 314 317 320 321 322 323 325 324 324 323 324 323 322 320 319 318 317 316 316 317 315 315 314 313 314 314 313 312 313 312 312
294 292 293 290 287 283 279 285 293 296 299 300 301 302 301 302 303 306 308 312 317 321 322 323 325 324 324 324 323 321 320 319 319 318 317 317 316 316 316 316 315 313 313 313 312 311 312 312 311
298 290 292 287 287 288 285 287 300 302 304 304 304 304 303 304 305 308 309 310 313 319 322 323 324 324 324 325 323 321 320 320 318 318 317 317 316 317 316 316 314 314 313 312 311 311 312 311 310
Wind_Speed
4 5 2 4 5 5 2 3 3 3 3 5 8 5 14 3 4 5 0 11 17 14 9 13 17 17 16 15 15 15 14 13 13 14 13 12 11 11 9 8 8 8 8 7 5 4 4 4 5
3 5 3 2 5 5 5 3 4 4 3 9 12 2 6 4 4 12 10 11 11 13 9 11 17 17 16 16 15 15 14 13 13 13 13 11 10 9 8 7 7 7 7 5 4 1 3 5 6
2 2 4 4 4 5 4 3 1 3 11 7 5 4 4 6 12 13 14 16 10 9 8 12 17 17 16 16 15 14 14 13 12 12 12 10 9 8 7 6 6 5 5 4 2 0 4 6 7
3 4 4 2 7 6 7 14 16 9 7 13 10 4 4 9 11 11 19 16 13 8 7 12 14 13 14 14 14 13 12 11 11 11 10 9 8 7 6 5 4 4 3 3 1 2 4 7 9
3 3 0 3 8 4 6 18 24 23 22 17 9 5 3 4 18 22 19 16 15 9 7 10 15 15 15 14 13 12 12 11 10 10 9 8 7 6 5 4 3 3 2 1 2 3 5 7 9
2 3 2 4 7 8 6 17 4 15 28 2 12 10 3 20 22 18 17 14 13 15 9 9 14 14 14 14 13 12 11 10 9 9 8 7 6 6 5 4 3 3 3 3 4 5 6 8 9
4 4 5 4 6 10 8 19 10 22 21 15 20 11 13 21 19 17 17 15 13 13 12 9 9 13 14 13 12 11 10 9 9 8 7 7 6 5 5 5 5 5 5 6 6 7 8 9 10
4 4 3 4 4 10 5 7 20 20 31 15 16 11 19 22 21 16 15 13 11 9 11 12 10 9 8 8 14 12 11 10 9 8 8 8 7 7 7 7 8 7 7 8 8 9 9 10 11
2 1 4 6 4 7 6 9 7 15 14 8 7 15 24 30 22 17 14 10 9 7 5 8 9 7 7 8 10 11 13 12 10 9 9 7 4 5 7 7 8 8 9 10 9 10 11 11 12
5 4 8 7 4 10 6 6 4 9 16 1 11 21 26 28 24 21 19 15 13 12 10 8 9 9 8 7 7 6 7 4 4 4 3 1 2 2 5 5 7 9 11 11 10 12 12 11 5
4 8 3 12 9 9 10 11 1 9 4 17 29 28 29 27 21 22 20 21 19 16 11 12 11 10 9 7 4 3 2 3 3 3 3 3 3 4 3 1 3 2 5 3 4 5 3 4 4
5 11 9 14 9 12 13 7 4 6 8 9 23 29 29 25 22 21 19 17 17 16 15 12 12 11 6 7 6 6 4 3 3 4 6 5 3 5 5 4 3 4 3 5 3 2 4 6 6
6 11 16 14 15 9 13 12 6 8 12 17 21 23 26 25 22 19 19 18 18 17 15 14 12 8 8 7 4 4 4 4 5 5 5 5 5 5 3 4 4 4 3 4 5 5 5 5 5
4 6 12 13 11 13 11 11 2 2 8 10 23 24 21 21 21 15 19 18 17 12 12 9 9 7 7 6 6 5 6 6 5 5 5 7 5 5 4 4 4 4 4 3 4 4 4 4 4
5 7 10 13 5 9 18 18 9 7 15 17 17 16 14 12 13 21 24 23 18 14 13 13 11 9 9 8 7 6 7 6 5 5 7 7 5 5 5 4 4 4 4 6 5 6 5 5 5
4 3 6 7 5 7 9 19 30 6 14 19 12 13 13 8 14 22 23 20 19 16 16 13 12 11 9 7 6 7 6 5 5 5 5 7 6 6 5 4 4 4 5 4 4 4 4 4 5
2 7 5 8 6 7 9 6 20 7 15 16 16 15 12 9 15 20 21 21 20 18 15 12 11 10 9 7 6 6 7 5 5 5 5 6 6 6 6 4 3 4 4 4 3 3 2 3 4
3 3 5 6 6 4 9 7 8 3 10 14 18 15 12 16 18 23 23 20 18 15 14 13 9 10 8 6 6 5 4 4 5 5 5 6 5 6 6 3 4 4 4 5 4 3 3 2 4
4 6 8 7 9 4 9 8 10 7 9 11 7 12 13 16 11 17 19 20 17 14 15 16 15 10 9 4 4 4 5 3 3 3 7 6 5 5 5 3 3 4 4 3 4 3 4 3 5
7 8 19 8 11 6 11 12 14 8 8 9 16 10 9 8 14 18 20 20 21 20 18 15 16 14 9 6 3 4 4 2 3 3 4 5 6 4 4 3 3 3 3 4 4 5 4 2 5
11 12 9 13 10 6 6 8 17 9 9 26 14 17 13 16 20 17 19 22 21 20 20 17 17 16 13 9 5 4 4 4 3 1 2 3 5 4 3 3 2 1 1 2 2 3 5 3 3
15 10 14 16 5 10 9 10 7 7 18 24 25 19 20 15 21 22 23 20 21 20 18 18 17 17 13 11 7 7 6 5 4 4 3 4 5 4 3 4 3 2 1 1 1 1 1 2 3
14 16 18 8 6 1 3 4 10 2 8 20 22 18 21 20 24 23 24 24 22 19 19 18 18 17 16 16 11 8 6 4 3 3 7 5 3 3 5 4 3 3 2 2 1 2 2 0 1
8 7 0 3 5 1 13 8 6 6 9 6 7 14 17 19 20 23 25 22 20 17 16 16 19 18 16 16 15 14 12 8 5 4 5 3 2 3 4 3 3 3 3 3 2 2 1 2 1
3 5 4 3 2 10 4 2 9 7 9 9 9 10 16 16 19 21 22 20 18 19 19 17 20 18 16 14 14 12 11 9 9 7 5 6 3 1 2 2 3 2 3 3 3 3 3 3 2
8 9 7 8 5 13 3 5 15 10 10 9 10 12 11 13 18 23 27 25 23 23 22 21 20 18 17 13 11 10 9 6 6 7 5 5 4 4 4 3 3 3 3 3 3 2 3 3 4
11 5 10 5 2 1 5 8 7 2 8 8 15 11 12 8 15 23 25 26 24 23 23 23 21 17 16 14 9 10 9 9 8 8 6 5 4 4 5 4 2 3 4 4 5 3 5 4 5
3 5 4 2 6 7 3 4 13 9 12 10 12 12 8 7 9 10 18 22 20 19 18 18 18 18 18 15 12 10 10 8 7 7 7 7 6 5 5 4 5 4 5 5 5 4 5 5 5
10 8 6 3 5 8 3 9 4 2 7 11 7 5 6 7 8 9 9 10 14 15 16 15 15 15 12 12 11 10 8 8 7 6 6 7 6 6 6 6 5 5 6 6 5 6 6 6 6
2 13 9 3 7 3 3 9 10 17 17 19 7 4 9 8 7 8 7 10 13 16 17 16 15 15 14 12 10 9 8 8 8 7 7 7 7 6 6 6 5 5 6 6 6 6 6 6 7
Wind_Direction
193 155 149 58 68 62 83 244 326 220 252 213 271 226 162 339 187 198 253 150 134 146 146 143 137 133 132 131 131 129 125 124 123 122 120 116 112 112 110 112 116 116 114 104 90 58 31 30 20
188 147 49 81 103 87 254 205 145 321 204 334 6 297 76 111 62 121 106 137 144 139 139 141 138 136 134 134 136 136 135 136 136 134 130 125 119 115 115 115 115 124 127 124 115 63 340 340 344
234 161 99 135 128 158 169 186 126 257 292 293 348 267 50 129 122 139 130 141 142 121 138 142 139 139 140 141 140 142 144 144 138 136 134 131 129 123 118 121 125 129 139 143 148 256 310 318 327
179 28 8 126 229 237 135 147 88 320 264 230 259 301 22 154 139 140 140 136 127 122 129 132 130 130 131 134 138 139 140 139 138 137 138 140 140 138 137 133 134 143 152 163 196 273 302 311 317
33 71 113 241 252 147 119 172 142 187 253 214 200 265 108 91 124 133 138 138 134 129 128 130 132 132 132 133 134 137 139 141 141 142 145 144 145 148 144 140 147 160 163 199 255 283 293 299 306
356 104 79 241 264 136 175 186 139 195 231 314 152 169 98 131 132 145 142 143 143 136 133 132 130 130 132 134 134 136 138 138 140 144 146 148 155 154 166 167 173 184 200 231 258 271 279 286 286
152 105 213 243 277 297 141 170 193 210 228 189 170 116 138 146 146 146 142 140 141 139 135 135 133 137 134 133 134 136 138 139 141 147 150 157 171 179 192 199 212 219 228 235 242 256 265 273 284
145 107 224 236 252 282 164 137 211 189 218 155 161 155 166 150 152 142 137 133 138 145 146 144 142 140 137 142 142 142 142 145 149 156 166 178 185 193 208 214 226 230 240 248 257 264 270 277 280
111 21 232 227 233 267 351 17 96 190 178 232 197 155 150 146 146 132 131 136 141 142 145 143 140 141 143 141 149 147 155 159 166 170 178 184 188 205 223 228 232 241 249 254 257 265 267 271 276
152 179 233 210 251 291 284 5 302 155 198 88 115 136 135 149 150 146 154 158 164 155 163 156 149 153 152 153 151 157 165 162 149 158 165 175 257 246 241 252 263 261 263 266 271 284 292 285 298
215 228 268 273 276 285 311 312 327 132 299 173 157 153 153 154 158 157 163 165 170 163 161 167 162 161 166 148 149 151 143 130 142 154 107 75 54 47 61 66 3 307 334 307 337 320 326 305 282
253 265 264 277 276 285 277 313 323 197 187 248 165 157 151 163 167 165 164 162 156 162 166 167 169 165 162 146 161 161 144 140 117 107 100 97 68 45 46 49 24 44 19 28 25 6 353 349 337
206 255 263 264 268 255 273 272 239 246 194 176 165 164 166 170 169 168 165 159 156 162 166 169 166 160 155 149 155 136 140 121 132 106 87 87 79 76 66 43 39 42 19 16 5 7 3 356 355
245 252 266 264 251 257 267 279 169 209 134 178 170 177 177 173 169 153 160 157 160 146 153 150 152 146 143 138 147 134 128 136 113 110 107 90 86 75 57 42 35 30 14 2 14 18 14 6 358
241 281 287 265 242 229 273 276 211 166 177 184 191 176 178 172 138 154 159 157 148 148 141 140 136 128 127 130 126 129 135 128 128 118 99 96 86 79 71 54 29 10 2 12 11 14 9 8 354
342 174 256 271 236 230 185 250 268 132 155 180 191 184 181 143 145 148 152 146 146 144 146 144 140 132 136 145 136 128 135 131 120 107 102 107 102 90 73 56 26 360 12 21 18 12 356 354 352
308 241 257 303 214 230 161 221 258 161 157 186 187 187 185 126 144 147 151 152 150 150 147 136 138 138 136 130 109 116 127 120 123 115 115 114 108 95 87 71 37 30 34 31 7 348 11 339 331
262 275 282 249 273 197 255 239 260 291 137 196 191 186 175 159 163 158 153 151 150 150 146 139 138 133 127 116 97 92 101 102 123 129 128 128 116 97 90 75 48 43 37 16 6 354 338 315 321
235 255 260 260 264 254 248 234 249 201 183 176 216 204 184 174 163 158 151 150 149 151 150 154 148 152 133 126 131 124 149 142 123 144 145 135 124 102 97 81 55 44 44 22 8 347 350 332 335
243 247 263 286 259 176 262 261 273 225 185 184 194 221 219 138 156 160 159 161 165 163 163 162 155 148 146 144 143 137 142 144 140 146 145 144 133 129 125 110 69 51 41 23 20 33 350 343 12
246 237 259 242 272 231 214 267 255 231 168 239 203 207 199 167 167 171 168 173 167 168 168 164 158 158 155 147 115 80 68 62 72 137 144 179 157 159 157 142 153 131 85 31 22 31 43 342 330
254 242 238 246 234 251 149 259 270 240 218 210 220 196 204 182 178 177 178 174 177 177 168 159 159 160 158 148 147 156 163 157 194 174 168 175 174 186 191 198 210 201 181 1 9 54 36 44 348
250 253 236 201 192 165 234 115 258 194 243 225 220 190 196 191 182 183 183 181 183 167 171 166 161 165 165 158 157 159 156 160 154 137 157 175 182 218 224 209 219 222 218 255 264 325 349 23 70
265 272 75 75 113 28 251 174 245 213 221 261 225 201 194 189 190 190 187 181 178 172 164 165 166 174 171 168 163 168 164 165 147 147 155 161 173 238 241 244 220 213 221 237 256 272 245 275 264
225 68 283 318 6 223 240 202 218 233 238 223 251 241 205 200 185 187 183 181 177 174 173 172 170 174 172 175 174 170 163 162 164 163 156 156 177 159 165 147 168 200 237 247 249 268 271 270 250
234 168 174 213 198 260 106 218 262 220 244 247 235 250 240 205 194 190 183 180 178 179 177 175 177 172 173 170 165 163 156 155 159 162 156 178 173 166 177 179 183 230 259 273 271 256 257 246 255
273 208 196 162 237 35 208 277 283 353 314 270 259 225 230 210 191 198 182 178 179 180 180 176 178 176 172 170 157 161 156 157 162 167 166 165 151 171 176 169 208 265 276 269 268 255 261 251 252
215 243 228 347 178 241 256 207 255 343 302 300 307 215 192 143 154 169 179 178 181 180 176 174 175 175 172 167 167 162 170 161 157 158 168 163 166 169 169 210 234 257 264 270 270 267 261 256 252
346 349 323 329 141 219 205 254 205 267 332 318 20 357 112 95 98 122 149 166 166 161 163 165 168 165 161 171 166 163 162 152 156 162 160 169 175 191 197 217 231 245 259 264 270 267 266 258 258
103 25 9 89 298 8 177 248 37 24 15 17 310 331 33 41 90 113 115 146 161 158 164 164 166 167 169 166 159 169 153 155 168 180 184 182 194 197 204 216 230 246 256 262 258 265 264 258 258